QPF
0.02 0.03 0.04 0.06 0.07 0.07 0.06 0.08 0.10 0.09 0.08 0.07 0.05 0.04 0.04 0.04 0.04 0.04 0.05 0.05 0.06 0.06 0.05 0.04 0.03 0.03 0.04 0.06 0.08 0.09 0.07 0.05 0.08 0.10 0.11 0.09 0.07 0.05 0.04 0.04 0.04 0.05 0.06
0.03 0.05 0.07 0.08 0.08 0.07 0.08 0.09 0.10 0.12 0.10 0.07 0.08 0.07 0.06 0.05 0.04 0.04 0.04 0.06 0.08 0.07 0.06 0.05 0.04 0.04 0.05 0.06 0.09 0.10 0.09 0.07 0.08 0.09 0.11 0.08 0.07 0.04 0.04 0.04 0.04 0.05 0.06
0.04 0.05 0.07 0.07 0.07 0.06 0.07 0.08 0.08 0.11 0.11 0.09 0.09 0.10 0.09 0.07 0.04 0.04 0.05 0.05 0.06 0.06 0.06 0.06 0.05 0.04 0.04 0.04 0.07 0.09 0.09 0.08 0.09 0.11 0.11 0.06 0.04 0.03 0.03 0.03 0.04 0.05 0.06
0.02 0.03 0.04 0.05 0.06 0.06 0.08 0.10 0.11 0.11 0.13 0.16 0.12 0.11 0.09 0.07 0.06 0.05 0.05 0.05 0.05 0.06 0.06 0.06 0.06 0.05 0.05 0.06 0.07 0.07 0.08 0.09 0.10 0.12 0.11 0.07 0.03 0.02 0.02 0.01 0.02 0.03 0.05
0.01 0.02 0.03 0.04 0.06 0.06 0.05 0.07 0.09 0.09 0.09 0.10 0.08 0.08 0.07 0.06 0.07 0.06 0.04 0.05 0.05 0.06 0.06 0.05 0.05 0.06 0.07 0.07 0.07 0.06 0.07 0.07 0.09 0.10 0.10 0.09 0.05 0.04 0.02 0.01 0.01 0.01 0.02
0.01 0.02 0.03 0.04 0.05 0.04 0.03 0.04 0.06 0.05 0.05 0.08 0.07 0.06 0.05 0.05 0.06 0.07 0.05 0.03 0.04 0.04 0.05 0.04 0.04 0.05 0.06 0.06 0.06 0.06 0.06 0.05 0.07 0.08 0.10 0.08 0.06 0.05 0.04 0.02 0.01 0.01 0.01
0.01 0.02 0.03 0.03 0.04 0.04 0.05 0.05 0.05 0.05 0.05 0.09 0.09 0.07 0.06 0.06 0.05 0.06 0.06 0.05 0.05 0.05 0.05 0.05 0.06 0.05 0.05 0.04 0.06 0.07 0.08 0.07 0.07 0.06 0.07 0.07 0.06 0.05 0.04 0.03 0.02 0.01 0.01
0.02 0.03 0.04 0.03 0.04 0.04 0.05 0.06 0.05 0.04 0.05 0.09 0.10 0.08 0.07 0.06 0.05 0.05 0.07 0.05 0.05 0.05 0.05 0.05 0.06 0.05 0.05 0.05 0.06 0.06 0.07 0.08 0.09 0.07 0.07 0.07 0.07 0.05 0.04 0.02 0.03 0.02 0.02
0.02 0.03 0.04 0.04 0.04 0.05 0.08 0.08 0.07 0.07 0.08 0.09 0.10 0.10 0.07 0.06 0.06 0.07 0.07 0.06 0.05 0.05 0.05 0.06 0.05 0.04 0.05 0.05 0.05 0.05 0.05 0.06 0.06 0.05 0.06 0.05 0.05 0.04 0.04 0.03 0.03 0.03 0.02
0.03 0.03 0.04 0.04 0.05 0.06 0.09 0.12 0.09 0.08 0.09 0.10 0.10 0.14 0.11 0.08 0.06 0.08 0.11 0.09 0.07 0.07 0.07 0.07 0.06 0.05 0.05 0.03 0.03 0.03 0.04 0.06 0.07 0.05 0.05 0.04 0.04 0.04 0.04 0.03 0.03 0.03 0.03
0.05 0.05 0.05 0.06 0.07 0.06 0.08 0.09 0.08 0.08 0.09 0.09 0.08 0.08 0.08 0.08 0.07 0.07 0.10 0.12 0.10 0.07 0.07 0.06 0.06 0.05 0.04 0.03 0.03 0.03 0.03 0.04 0.04 0.05 0.05 0.04 0.05 0.04 0.03 0.03 0.03 0.03 0.03
0.04 0.06 0.08 0.08 0.07 0.07 0.08 0.07 0.07 0.08 0.08 0.09 0.09 0.07 0.07 0.07 0.06 0.05 0.07 0.10 0.09 0.06 0.04 0.04 0.04 0.04 0.03 0.03 0.02 0.02 0.02 0.02 0.03 0.02 0.02 0.03 0.03 0.02 0.03 0.03 0.03 0.03 0.02
0.05 0.08 0.08 0.08 0.06 0.07 0.09 0.09 0.07 0.07 0.07 0.07 0.07 0.06 0.05 0.04 0.04 0.03 0.03 0.04 0.04 0.03 0.02 0.01 0.01 0.01 0.01 0.01 0.02 0.02 0.02 0.02 0.03 0.03 0.02 0.02 0.02 0.02 0.02 0.03 0.03 0.03 0.02
0.05 0.08 0.08 0.07 0.06 0.06 0.08 0.10 0.08 0.07 0.07 0.06 0.06 0.05 0.04 0.03 0.03 0.02 0.02 0.02 0.02 0.02 0.01 0.01 0.01 0.01 0.01 0.01 0.01 0.02 0.01 0.02 0.02 0.03 0.03 0.04 0.03 0.03 0.03 0.03 0.02 0.03 0.02
0.05 0.06 0.08 0.07 0.06 0.07 0.09 0.06 0.06 0.07 0.08 0.07 0.05 0.04 0.05 0.04 0.03 0.02 0.02 0.02 0.02 0.02 0.02 0.01 0.01 0.01 0.01 0.01 0.01 0.01 0.01 0.01 0.02 0.02 0.02 0.03 0.04 0.03 0.03 0.02 0.02 0.02 0.02
0.03 0.04 0.05 0.06 0.05 0.05 0.05 0.03 0.03 0.04 0.07 0.07 0.06 0.05 0.05 0.04 0.03 0.03 0.02 0.02 0.03 0.03 0.03 0.03 0.02 0.02 0.01 0.01 0.01 0.01 0.01 0.01 0.01 0.01 0.01 0.02 0.02 0.02 0.02 0.02 0.01 0.01 0.01
0.02 0.02 0.03 0.04 0.04 0.04 0.04 0.04 0.04 0.04 0.06 0.07 0.06 0.05 0.04 0.04 0.04 0.04 0.03 0.02 0.02 0.03 0.03 0.03 0.03 0.02 0.01 0.02 0.02 0.02 0.01 0.01 0.01 0.01 0.01 0.01 0.01 0.01 0.02 0.02 0.01 0.01 0.01
0.02 0.01 0.02 0.03 0.03 0.03 0.04 0.06 0.08 0.07 0.06 0.06 0.05 0.04 0.04 0.03 0.04 0.04 0.04 0.03 0.04 0.06 0.06 0.05 0.04 0.03 0.02 0.02 0.02 0.03 0.02 0.01 0.01 0.01 0.01 0.01 0.01 0.01 0.01 0.01 0.01 0.00 0.01
0.02 0.02 0.03 0.03 0.03 0.03 0.05 0.05 0.05 0.05 0.05 0.04 0.03 0.03 0.02 0.02 0.01 0.03 0.03 0.03 0.03 0.04 0.04 0.04 0.03 0.03 0.03 0.03 0.03 0.03 0.02 0.01 0.00 0.00 0.01 0.01 0.01 0.02 0.02 0.01 0.01 0.01 0.02
0.02 0.02 0.03 0.03 0.02 0.02 0.04 0.05 0.04 0.04 0.03 0.03 0.03 0.02 0.02 0.01 0.01 0.03 0.03 0.04 0.04 0.03 0.03 0.03 0.03 0.02 0.02 0.02 0.02 0.02 0.02 0.01 0.01 0.01 0.02 0.02 0.00 0.00 0.01 0.01 0.02 0.02 0.02
0.02 0.02 0.03 0.02 0.02 0.02 0.02 0.03 0.02 0.03 0.03 0.03 0.02 0.02 0.01 0.02 0.02 0.03 0.04 0.06 0.05 0.05 0.04 0.03 0.04 0.03 0.03 0.03 0.02 0.02 0.01 0.01 0.01 0.01 0.01 0.01 0.00 0.00 0.00 0.01 0.01 0.01 0.02
0.02 0.02 0.02 0.02 0.01 0.01 0.01 0.01 0.01 0.01 0.01 0.01 0.01 0.01 0.01 0.01 0.02 0.03 0.05 0.07 0.07 0.06 0.05 0.04 0.04 0.04 0.03 0.03 0.02 0.01 0.01 0.01 0.01 0.01 0.00 0.00 0.00 0.00 0.01 0.01 0.00 0.01 0.01
0.03 0.03 0.03 0.02 0.01 0.01 0.01 0.01 0.00 0.01 0.01 0.02 0.02 0.02 0.01 0.01 0.02 0.03 0.04 0.07 0.08 0.07 0.06 0.04 0.04 0.03 0.03 0.03 0.03 0.01 0.01 0.01 0.01 0.01 0.01 0.00 0.00 0.01 0.01 0.01 0.01 0.01 0.01
0.03 0.03 0.03 0.03 0.02 0.02 0.02 0.02 0.02 0.01 0.01 0.02 0.02 0.02 0.03 0.03 0.03 0.04 0.04 0.06 0.06 0.06 0.05 0.05 0.04 0.03 0.02 0.01 0.02 0.02 0.01 0.00 0.00 0.00 0.00 0.00 0.01 0.01 0.01 0.01 0.00 0.00 0.00
0.04 0.04 0.04 0.04 0.04 0.03 0.02 0.03 0.03 0.03 0.03 0.03 0.03 0.05 0.08 0.07 0.06 0.06 0.07 0.09 0.08 0.07 0.05 0.03 0.02 0.01 0.01 0.01 0.01 0.01 0.01 0.00 0.00 0.00 0.00 0.01 0.01 0.01 0.01 0.00 0.00 0.00 0.00
0.04 0.03 0.04 0.04 0.05 0.04 0.04 0.03 0.03 0.03 0.02 0.02 0.02 0.03 0.04 0.03 0.03 0.03 0.04 0.05 0.04 0.04 0.03 0.03 0.02 0.01 0.01 0.02 0.01 0.01 0.02 0.03 0.02 0.01 0.01 0.01 0.01 0.01 0.00 0.00 0.00 0.00 0.00
MSLP
1009.10 1009.68 1010.20 1010.63 1010.98 1011.25 1011.50 1011.78 1012.14 1012.58 1013.12 1013.70 1014.30 1014.85 1015.31 1015.67 1015.93 1016.11 1016.26 1016.41 1016.58 1016.78 1017.01 1017.24 1017.44 1017.58 1017.66 1017.67 1017.64 1017.58 1017.53 1017.50 1017.48 1017.46 1017.42 1017.32 1017.13 1016.84 1016.46 1016.01 1015.53 1015.06 1014.62
1008.68 1009.26 1009.78 1010.21 1010.55 1010.82 1011.08 1011.39 1011.79 1012.30 1012.91 1013.57 1014.24 1014.85 1015.36 1015.74 1016.01 1016.18 1016.32 1016.46 1016.62 1016.83 1017.06 1017.30 1017.51 1017.66 1017.74 1017.74 1017.70 1017.64 1017.59 1017.57 1017.58 1017.60 1017.59 1017.52 1017.35 1017.06 1016.64 1016.13 1015.57 1014.99 1014.46
1008.04 1008.62 1009.15 1009.60 1009.95 1010.26 1010.56 1010.91 1011.37 1011.95 1012.63 1013.36 1014.09 1014.75 1015.29 1015.70 1015.97 1016.16 1016.29 1016.43 1016.60 1016.81 1017.06 1017.31 1017.53 1017.69 1017.76 1017.77 1017.72 1017.66 1017.62 1017.61 1017.65 1017.71 1017.75 1017.72 1017.58 1017.29 1016.86 1016.30 1015.66 1014.99 1014.34
1007.24 1007.81 1008.36 1008.84 1009.24 1009.59 1009.95 1010.37 1010.90 1011.54 1012.28 1013.07 1013.85 1014.54 1015.11 1015.54 1015.83 1016.03 1016.18 1016.33 1016.51 1016.74 1017.01 1017.28 1017.51 1017.67 1017.75 1017.75 1017.70 1017.64 1017.61 1017.63 1017.70 1017.80 1017.89 1017.90 1017.80 1017.53 1017.09 1016.50 1015.80 1015.05 1014.31
1006.36 1006.92 1007.48 1008.00 1008.45 1008.87 1009.30 1009.79 1010.38 1011.09 1011.88 1012.71 1013.52 1014.25 1014.84 1015.29 1015.60 1015.82 1015.99 1016.17 1016.38 1016.64 1016.93 1017.22 1017.46 1017.63 1017.71 1017.70 1017.66 1017.60 1017.57 1017.61 1017.71 1017.86 1017.99 1018.05 1017.99 1017.75 1017.32 1016.71 1015.97 1015.17 1014.36
1005.49 1006.03 1006.60 1007.15 1007.66 1008.15 1008.65 1009.21 1009.87 1010.62 1011.46 1012.32 1013.15 1013.89 1014.50 1014.97 1015.31 1015.56 1015.77 1015.98 1016.23 1016.53 1016.84 1017.15 1017.40 1017.57 1017.65 1017.64 1017.59 1017.53 1017.51 1017.57 1017.69 1017.86 1018.03 1018.13 1018.11 1017.90 1017.50 1016.90 1016.16 1015.32 1014.47
1004.71 1005.22 1005.78 1006.35 1006.90 1007.45 1008.02 1008.64 1009.36 1010.16 1011.02 1011.90 1012.75 1013.50 1014.13 1014.63 1015.00 1015.29 1015.54 1015.80 1016.09 1016.41 1016.75 1017.07 1017.33 1017.50 1017.58 1017.57 1017.51 1017.45 1017.43 1017.48 1017.62 1017.80 1017.99 1018.12 1018.13 1017.97 1017.60 1017.03 1016.31 1015.49 1014.63
1004.06 1004.51 1005.05 1005.62 1006.20 1006.79 1007.41 1008.10 1008.86 1009.70 1010.59 1011.49 1012.34 1013.11 1013.76 1014.28 1014.69 1015.02 1015.33 1015.63 1015.96 1016.31 1016.67 1017.00 1017.26 1017.43 1017.50 1017.48 1017.42 1017.35 1017.32 1017.37 1017.49 1017.67 1017.87 1018.02 1018.05 1017.92 1017.60 1017.09 1016.41 1015.63 1014.81
1003.54 1003.91 1004.41 1004.96 1005.54 1006.16 1006.82 1007.55 1008.35 1009.23 1010.15 1011.07 1011.94 1012.73 1013.41 1013.96 1014.41 1014.79 1015.14 1015.48 1015.85 1016.22 1016.59 1016.92 1017.18 1017.35 1017.41 1017.38 1017.31 1017.23 1017.19 1017.22 1017.33 1017.50 1017.68 1017.82 1017.87 1017.77 1017.50 1017.05 1016.44 1015.74 1014.97
1003.11 1003.41 1003.83 1004.35 1004.92 1005.54 1006.23 1006.99 1007.84 1008.75 1009.70 1010.65 1011.55 1012.37 1013.07 1013.67 1014.16 1014.59 1014.98 1015.36 1015.75 1016.14 1016.51 1016.84 1017.10 1017.25 1017.31 1017.28 1017.21 1017.12 1017.06 1017.07 1017.16 1017.29 1017.45 1017.58 1017.62 1017.55 1017.31 1016.93 1016.41 1015.79 1015.11
1002.76 1002.96 1003.31 1003.76 1004.30 1004.92 1005.62 1006.41 1007.30 1008.25 1009.23 1010.22 1011.15 1012.01 1012.75 1013.39 1013.93 1014.40 1014.82 1015.24 1015.64 1016.04 1016.42 1016.74 1016.99 1017.14 1017.20 1017.18 1017.10 1017.02 1016.95 1016.95 1017.00 1017.10 1017.22 1017.32 1017.36 1017.29 1017.09 1016.76 1016.32 1015.79 1015.20
1002.43 1002.55 1002.82 1003.20 1003.70 1004.30 1005.01 1005.83 1006.74 1007.74 1008.76 1009.79 1010.76 1011.66 1012.44 1013.12 1013.70 1014.21 1014.67 1015.10 1015.52 1015.93 1016.30 1016.62 1016.86 1017.02 1017.08 1017.07 1017.01 1016.93 1016.87 1016.86 1016.89 1016.96 1017.04 1017.11 1017.12 1017.05 1016.87 1016.58 1016.20 1015.75 1015.26
1002.12 1002.16 1002.35 1002.67 1003.12 1003.70 1004.42 1005.26 1006.21 1007.24 1008.30 1009.36 1010.38 1011.30 1012.13 1012.85 1013.46 1014.00 1014.49 1014.95 1015.38 1015.78 1016.16 1016.47 1016.71 1016.87 1016.95 1016.96 1016.93 1016.87 1016.83 1016.82 1016.83 1016.88 1016.93 1016.96 1016.95 1016.86 1016.68 1016.42 1016.09 1015.70 1015.27
1001.81 1001.79 1001.92 1002.19 1002.60 1003.17 1003.89 1004.75 1005.72 1006.78 1007.88 1008.97 1010.01 1010.96 1011.81 1012.56 1013.20 1013.77 1014.29 1014.76 1015.20 1015.61 1015.98 1016.29 1016.54 1016.71 1016.81 1016.85 1016.85 1016.83 1016.81 1016.81 1016.83 1016.86 1016.89 1016.90 1016.85 1016.74 1016.56 1016.30 1015.99 1015.63 1015.25
1001.50 1001.44 1001.53 1001.77 1002.17 1002.73 1003.46 1004.33 1005.33 1006.40 1007.51 1008.61 1009.66 1010.62 1011.49 1012.26 1012.92 1013.51 1014.05 1014.53 1014.98 1015.40 1015.77 1016.08 1016.34 1016.52 1016.65 1016.72 1016.75 1016.77 1016.78 1016.81 1016.84 1016.88 1016.90 1016.88 1016.81 1016.68 1016.48 1016.22 1015.90 1015.56 1015.20
1001.18 1001.12 1001.20 1001.43 1001.83 1002.41 1003.14 1004.02 1005.03 1006.10 1007.21 1008.30 1009.34 1010.30 1011.17 1011.94 1012.62 1013.22 1013.77 1014.27 1014.73 1015.15 1015.52 1015.84 1016.10 1016.30 1016.44 1016.54 1016.61 1016.66 1016.72 1016.78 1016.84 1016.88 1016.90 1016.88 1016.80 1016.66 1016.44 1016.16 1015.84 1015.49 1015.14
1000.85 1000.81 1000.91 1001.17 1001.59 1002.18 1002.94 1003.83 1004.83 1005.89 1006.98 1008.04 1009.06 1009.99 1010.84 1011.60 1012.28 1012.90 1013.46 1013.97 1014.44 1014.86 1015.24 1015.56 1015.82 1016.02 1016.18 1016.30 1016.39 1016.49 1016.58 1016.67 1016.76 1016.84 1016.87 1016.86 1016.78 1016.62 1016.40 1016.11 1015.78 1015.43 1015.07
1000.52 1000.53 1000.67 1000.97 1001.43 1002.06 1002.83 1003.73 1004.71 1005.75 1006.79 1007.82 1008.78 1009.68 1010.50 1011.25 1011.93 1012.54 1013.11 1013.64 1014.11 1014.54 1014.91 1015.23 1015.48 1015.68 1015.85 1015.98 1016.10 1016.22 1016.34 1016.47 1016.60 1016.70 1016.77 1016.77 1016.71 1016.56 1016.34 1016.06 1015.73 1015.37 1015.00
1000.22 1000.28 1000.48 1000.83 1001.34 1002.00 1002.79 1003.68 1004.64 1005.64 1006.64 1007.61 1008.52 1009.38 1010.17 1010.89 1011.56 1012.18 1012.75 1013.27 1013.75 1014.18 1014.55 1014.85 1015.10 1015.30 1015.46 1015.60 1015.73 1015.87 1016.03 1016.19 1016.35 1016.49 1016.58 1016.62 1016.58 1016.46 1016.25 1015.98 1015.66 1015.31 1014.95
999.97 1000.08 1000.34 1000.75 1001.30 1001.99 1002.78 1003.66 1004.60 1005.55 1006.50 1007.41 1008.27 1009.08 1009.83 1010.53 1011.18 1011.80 1012.37 1012.90 1013.38 1013.80 1014.16 1014.45 1014.69 1014.88 1015.03 1015.18 1015.32 1015.48 1015.66 1015.85 1016.04 1016.21 1016.34 1016.41 1016.39 1016.30 1016.13 1015.88 1015.58 1015.26 1014.92
999.83 999.99 1000.29 1000.74 1001.32 1002.02 1002.82 1003.68 1004.58 1005.48 1006.37 1007.22 1008.03 1008.80 1009.51 1010.19 1010.83 1011.43 1012.00 1012.52 1012.99 1013.41 1013.76 1014.04 1014.27 1014.45 1014.61 1014.76 1014.92 1015.10 1015.29 1015.51 1015.72 1015.92 1016.08 1016.17 1016.19 1016.12 1015.98 1015.76 1015.50 1015.21 1014.90
999.85 1000.04 1000.37 1000.83 1001.42 1002.12 1002.90 1003.73 1004.58 1005.43 1006.26 1007.07 1007.83 1008.55 1009.24 1009.89 1010.51 1011.11 1011.66 1012.17 1012.63 1013.04 1013.38 1013.66 1013.88 1014.07 1014.23 1014.40 1014.57 1014.77 1014.99 1015.22 1015.46 1015.67 1015.84 1015.94 1015.98 1015.94 1015.82 1015.63 1015.41 1015.16 1014.89
1000.08 1000.27 1000.60 1001.06 1001.63 1002.30 1003.04 1003.82 1004.63 1005.42 1006.20 1006.96 1007.68 1008.36 1009.02 1009.65 1010.26 1010.83 1011.37 1011.86 1012.31 1012.70 1013.04 1013.31 1013.55 1013.75 1013.94 1014.12 1014.32 1014.54 1014.78 1015.03 1015.27 1015.48 1015.65 1015.76 1015.79 1015.76 1015.65 1015.50 1015.30 1015.09 1014.87
1000.52 1000.70 1001.00 1001.43 1001.97 1002.59 1003.27 1003.99 1004.73 1005.47 1006.20 1006.91 1007.59 1008.24 1008.87 1009.48 1010.06 1010.61 1011.13 1011.60 1012.03 1012.41 1012.74 1013.03 1013.28 1013.50 1013.72 1013.94 1014.18 1014.42 1014.68 1014.94 1015.17 1015.37 1015.53 1015.61 1015.63 1015.59 1015.48 1015.34 1015.17 1014.99 1014.82
1001.16 1001.31 1001.57 1001.95 1002.42 1002.97 1003.58 1004.24 1004.91 1005.58 1006.26 1006.91 1007.55 1008.18 1008.78 1009.35 1009.91 1010.43 1010.92 1011.38 1011.79 1012.16 1012.49 1012.79 1013.06 1013.32 1013.58 1013.84 1014.11 1014.39 1014.66 1014.91 1015.14 1015.31 1015.43 1015.49 1015.48 1015.41 1015.30 1015.16 1015.02 1014.87 1014.73
1001.96 1002.06 1002.27 1002.58 1002.98 1003.44 1003.97 1004.54 1005.13 1005.74 1006.35 1006.95 1007.55 1008.14 1008.70 1009.25 1009.77 1010.27 1010.73 1011.16 1011.56 1011.92 1012.26 1012.57 1012.87 1013.17 1013.46 1013.77 1014.07 1014.37 1014.65 1014.90 1015.10 1015.25 1015.33 1015.34 1015.30 1015.21 1015.08 1014.95 1014.82 1014.70 1014.61
Thickness
5755 5756 5756 5755 5752 5749 5746 5744 5741 5739 5736 5732 5729 5726 5724 5724 5723 5723 5722 5720 5719 5718 5716 5715 5713 5712 5711 5710 5709 5707 5706 5704 5705 5704 5703 5704 5706 5707 5708 5708 5708 5708 5708
5748 5749 5750 5749 5746 5744 5741 5739 5737 5736 5733 5730 5727 5725 5723 5721 5721 5720 5720 5718 5717 5715 5714 5713 5711 5710 5708 5706 5705 5704 5701 5700 5700 5699 5696 5694 5696 5700 5702 5703 5703 5704 5704
5744 5744 5745 5744 5742 5739 5737 5736 5734 5732 5731 5727 5724 5722 5719 5718 5717 5716 5716 5715 5714 5713 5711 5711 5709 5708 5706 5703 5702 5701 5699 5696 5696 5696 5694 5690 5688 5690 5694 5696 5698 5698 5699
5742 5741 5740 5739 5738 5737 5735 5733 5731 5730 5728 5724 5721 5718 5716 5714 5714 5714 5714 5713 5711 5710 5709 5708 5707 5705 5703 5701 5700 5699 5698 5696 5693 5692 5692 5691 5691 5687 5686 5689 5692 5693 5694
5739 5738 5737 5736 5734 5733 5731 5729 5727 5725 5724 5722 5720 5717 5714 5713 5712 5711 5710 5709 5707 5707 5707 5706 5704 5702 5700 5699 5698 5696 5695 5694 5692 5690 5689 5688 5687 5686 5684 5682 5685 5687 5689
5736 5735 5734 5732 5730 5729 5727 5725 5723 5721 5720 5719 5717 5715 5713 5711 5709 5708 5706 5705 5704 5703 5703 5703 5701 5700 5698 5696 5695 5694 5693 5692 5690 5688 5687 5685 5684 5682 5681 5679 5679 5680 5683
5730 5729 5728 5726 5725 5725 5723 5721 5720 5717 5716 5715 5714 5712 5711 5709 5707 5706 5704 5703 5701 5700 5700 5700 5698 5696 5695 5694 5693 5692 5690 5689 5687 5685 5683 5683 5682 5682 5680 5678 5675 5675 5677
5726 5726 5725 5723 5722 5721 5719 5718 5716 5714 5713 5712 5711 5710 5708 5706 5705 5704 5702 5701 5699 5699 5698 5697 5696 5694 5693 5691 5690 5688 5686 5685 5684 5683 5681 5680 5679 5679 5678 5676 5673 5670 5671
5722 5723 5722 5720 5718 5717 5716 5715 5714 5712 5710 5709 5707 5707 5706 5704 5703 5702 5701 5699 5698 5697 5696 5694 5693 5691 5690 5688 5686 5685 5683 5681 5680 5679 5678 5677 5676 5675 5675 5674 5673 5669 5666
5716 5717 5717 5717 5715 5714 5713 5711 5710 5709 5708 5707 5705 5705 5704 5702 5701 5700 5698 5696 5695 5694 5692 5691 5689 5688 5686 5685 5683 5681 5680 5678 5676 5675 5675 5674 5673 5672 5672 5671 5669 5668 5666
5712 5712 5713 5713 5712 5711 5709 5706 5706 5705 5704 5704 5703 5701 5700 5698 5698 5696 5695 5694 5692 5691 5688 5687 5686 5684 5683 5682 5680 5678 5677 5675 5674 5673 5672 5671 5670 5669 5668 5667 5665 5664 5663
5709 5709 5709 5708 5707 5705 5704 5703 5703 5702 5701 5700 5699 5697 5696 5695 5693 5693 5692 5691 5689 5687 5686 5684 5682 5681 5679 5678 5677 5675 5674 5672 5671 5670 5669 5668 5667 5666 5665 5663 5661 5660 5659
5705 5704 5704 5703 5703 5702 5701 5701 5700 5699 5698 5697 5695 5693 5691 5690 5689 5689 5688 5687 5686 5684 5682 5681 5679 5677 5676 5675 5673 5672 5670 5669 5668 5667 5666 5664 5663 5662 5660 5659 5658 5657 5656
5700 5699 5697 5697 5697 5698 5698 5698 5696 5695 5694 5693 5691 5689 5687 5687 5686 5685 5685 5684 5682 5680 5679 5677 5675 5674 5673 5672 5670 5669 5667 5666 5665 5664 5663 5661 5660 5659 5658 5656 5654 5653 5651
5695 5695 5693 5691 5692 5692 5693 5692 5691 5691 5690 5688 5686 5685 5684 5683 5683 5682 5681 5680 5679 5677 5675 5674 5672 5671 5670 5669 5667 5665 5664 5662 5661 5660 5659 5658 5657 5656 5655 5653 5651 5649 5647
5691 5691 5690 5688 5688 5688 5688 5687 5686 5686 5685 5683 5682 5681 5680 5679 5679 5678 5677 5675 5674 5673 5671 5669 5668 5667 5667 5666 5664 5662 5660 5658 5657 5655 5654 5653 5652 5651 5650 5649 5647 5646 5643
5687 5686 5686 5684 5684 5684 5684 5682 5682 5681 5680 5679 5678 5677 5676 5675 5674 5674 5672 5671 5669 5668 5667 5666 5664 5663 5662 5661 5660 5658 5656 5654 5652 5650 5649 5648 5647 5645 5644 5643 5641 5639 5638
5683 5682 5682 5680 5680 5680 5679 5678 5677 5676 5676 5674 5674 5673 5672 5670 5670 5669 5668 5666 5665 5664 5662 5661 5660 5658 5658 5656 5655 5653 5652 5649 5647 5646 5644 5643 5641 5640 5638 5637 5636 5634 5633
5679 5678 5678 5677 5675 5674 5673 5672 5671 5670 5670 5669 5669 5668 5668 5666 5665 5663 5662 5661 5660 5659 5658 5657 5655 5654 5653 5652 5650 5648 5646 5643 5642 5641 5639 5638 5636 5635 5633 5632 5630 5628 5627
5673 5673 5673 5672 5669 5668 5668 5667 5665 5664 5664 5664 5664 5664 5663 5662 5660 5659 5657 5655 5655 5654 5653 5651 5650 5649 5648 5647 5645 5643 5641 5638 5637 5635 5634 5632 5631 5630 5628 5626 5624 5623 5622
5667 5667 5667 5665 5664 5663 5662 5660 5659 5658 5659 5660 5660 5659 5658 5657 5656 5654 5652 5651 5650 5649 5648 5646 5645 5644 5643 5641 5640 5638 5636 5634 5632 5630 5629 5628 5627 5625 5623 5621 5619 5618 5616
5660 5660 5659 5657 5657 5657 5655 5654 5653 5654 5654 5654 5654 5653 5653 5652 5651 5649 5647 5646 5645 5643 5642 5641 5640 5639 5638 5637 5635 5633 5631 5630 5628 5626 5625 5623 5622 5620 5618 5616 5614 5612 5610
5652 5652 5652 5651 5650 5649 5649 5648 5648 5648 5648 5647 5647 5646 5646 5645 5645 5644 5642 5640 5639 5638 5637 5636 5635 5634 5633 5632 5630 5628 5626 5624 5622 5621 5620 5618 5616 5614 5612 5610 5609 5606 5604
5645 5644 5644 5643 5643 5643 5643 5643 5642 5642 5641 5639 5639 5639 5638 5638 5637 5636 5635 5634 5632 5631 5631 5630 5629 5628 5627 5626 5625 5623 5620 5618 5617 5615 5613 5611 5610 5608 5607 5604 5602 5600 5598
5637 5637 5636 5636 5635 5636 5636 5636 5636 5635 5633 5632 5632 5632 5632 5631 5630 5629 5629 5628 5627 5626 5625 5624 5623 5622 5622 5622 5620 5617 5616 5614 5612 5609 5607 5606 5604 5602 5601 5598 5596 5593 5591
5629 5629 5628 5628 5628 5628 5628 5629 5629 5628 5627 5625 5625 5625 5624 5624 5623 5622 5622 5622 5621 5621 5620 5619 5618 5619 5618 5617 5614 5612 5610 5608 5606 5603 5601 5600 5598 5596 5595 5592 5590 5588 5586